STARLINK-32523, 62165

Orbit data source: Space-Track

STARLINK-32523, 62165 is a payload satellite owned by SpaceX/Seattle (US) in LEO that was launched on Sat, 30 Nov 2024 UTC via an FALCON 9 launch vehicle from the Air Force Western Test Range (AFWTR). Payload-class satellites include a variety of spacecraft equipped with specific instruments for various scientific and technological missions. These include communications satellites like Starlink; space stations such as the ISS; scientific satellites like the Hubble; Earth observation satellites from companies like Planet Labs, Umbra, and HawkEye 360; GPS; miniature CubeSats for education and research; and military/defense satellites.

Loading next visibility...
Identifier
62165, 2024-225C
Orbit
LEO
Country
Flag of USUS
Related business
Manufacturer
SpaceX/Seattle
Mission
Operational Commercial Communications
Bus & Motor
STARLINK V2M, Unknown motor
Mass
730 kg wet, ~700 kg dry
Launch date (UTC)
2024-11-30 (1 year ago)
Launch vehicle
FALCON 9
Launch site
Air Force Western Test Range (AFWTR)
Object type
Payload
Rocket body
Debris
Shape & HBR
Box + 2 Pan, 17.7 m
Radar Cross Section
33.884 m², Large (>1 m²)

Expand to show TLE details & history
Last TLE update: 12 hours ago

TLE from 12 hours ago
0 STARLINK-32523
1 62165U 24225C   26062.75220203  .00015631  00000-0  13139-2 0  9997
2 62165  70.0029 179.5054 0003433 272.8959  87.1808 14.98358785 68987
Epoch: 2026-03-03T18:03Z
TLE epoch observation values (Epoch: 2026-03-03T18:03:10.255Z)
Latitude
0.00006°
Longitude
107.18594°
Altitude
574.274 km
Speed
7.574 km/s
True Right ascension
11h 58m 01s
True Declination
0° 00' 00"
Sunlit
Object was in full shadow at epoch
Visualization orbit readout
Latitude
Unknown
Longitude
Unknown
Altitude
Unknown
Speed
Unknown
Apparent Right ascension
Unknown
Apparent Declination
Unknown
Sunlit
N/A
Visualization observer readout
Local Sidereal Time
10:02:43
Azimuth
Unknown
Elevation
Unknown
Doppler factor
Unknown
Orbital elements
Apogee altitude
572.3 km
Perigee altitude
567.53 km
Semi-major axis
6,948.052 km
Eccentricity
0.00034
Inclination
70.0029°
RAAN
179.5054°
Arg. of periapsis
272.8959°
True anomaly
87.22009°
Mean anomaly
87.1808°
Eccentric anomaly
87.20045°
Mean motion
3.74756 °/min
Orbital period
96.06 mins
BSTAR
0.0013139
Loading maneuver chart data...
Computing Atmospheric mass density...
Loading historical data...
Loading historical data...
Loading historical data...
Loading historical data...
Loading historical data...
Loading historical data...
Loading historical data...

Documentation

Showing up to 5 results
|